STARLINK-36747, 67730

Orbit data source: Space-Track

STARLINK-36747, 67730 is a payload satellite owned by SpaceX/Seattle (US) in SSO that was launched on Wed, 11 Feb 2026 UTC via an FALCON 9 launch vehicle from the Air Force Western Test Range (AFWTR). Payload-class satellites include a variety of spacecraft equipped with specific instruments for various scientific and technological missions. These include communications satellites like Starlink; space stations such as the ISS; scientific satellites like the Hubble; Earth observation satellites from companies like Planet Labs, Umbra, and HawkEye 360; GPS; miniature CubeSats for education and research; and military/defense satellites.

Loading next visibility...
Identifier
67730, 2026-026K
Orbit
SSO
Country
Flag of USUS
Related business
Manufacturer
SpaceX/Seattle
Mission
Operational Commercial Communications
Bus & Motor
STARLINK V2MO, Unknown motor
Mass
575 kg wet, ~530 kg dry
Launch date (UTC)
2026-02-11 (3 months ago)
Launch vehicle
FALCON 9
Launch site
Air Force Western Test Range (AFWTR)
Object type
Payload
Rocket body
Debris
Shape & HBR
Box + 2 Pan, 17.7 m
Radar Cross Section
36.964 m²

Expand to show TLE details & history
Last TLE update: 8 hours ago

TLE from 8 hours ago
0 STARLINK-36747
1 67730U 26026K   26130.14781712  .00003818  00000-0  12057-3 0  9990
2 67730  97.2838 183.8710 0001965  89.5228 270.6240 15.33434200 13544
Epoch: 2026-05-10T03:32Z
TLE epoch observation values (Epoch: 2026-05-10T03:32:51.399Z)
Latitude
0.00001°
Longitude
-97.29823°
Altitude
468.673 km
Speed
7.632 km/s
True Right ascension
12h 15m 29s
True Declination
0° 00' 00"
Sunlit
Object was in full shadow at epoch
Visualization orbit readout
Latitude
Unknown
Longitude
Unknown
Altitude
Unknown
Speed
Unknown
Apparent Right ascension
Unknown
Apparent Declination
Unknown
Sunlit
N/A
Visualization observer readout
Local Sidereal Time
19:48:34
Azimuth
Unknown
Elevation
Unknown
Doppler factor
Unknown
Orbital elements
Apogee altitude
463.862 km
Perigee altitude
461.174 km
Semi-major axis
6,840.655 km
Eccentricity
0.0002
Inclination
97.2838°
RAAN
183.871°
Arg. of periapsis
89.5228°
True anomaly
270.60148°
Mean anomaly
270.624°
Eccentric anomaly
270.61274°
Mean motion
3.83616 °/min
Orbital period
93.84 mins
BSTAR
0.00012057
Loading maneuver chart data...
Computing Atmospheric mass density...
Loading historical data...
Loading historical data...
Loading historical data...
Loading historical data...
Loading historical data...
Loading historical data...
Loading historical data...

Documentation

Showing up to 5 results
|